www.pogodaiklimat.ru

Погода и климат >> Архив погоды >> Украина >> Сарны


ПОГОДА в Сарнах

  • Прогноз погоды в Сарнах
  • Монитор погоды в Сарнах

АРХИВ ПОГОДЫ в Сарнах

Время (UTC), дата Ветер
(напр.,м/с)
 
Видим.   Явления Облачность Т
(С)
Тd
(С)
f
(%)
Тe
(С)
Тes
(С)
Комфортность P
(гПа)
Po
(гПа)
Тmin
(С)
Tmax
(С)
R
(мм)
R24
(мм)
S
(см)
00 15.09 штиль 0 10 км 6/0
[Ci]
+8.3 +4.9 79 +8 +8 1027.7 1008.5
03 15.09 штиль 0 10 км 4/0
[Cc]
+5.3 +2.9 84 +4 +4 1027.2 1007.8
06 15.09 штиль 0 10 км 4/0
[Ci fib]
+9.4 +6.6 83 +9 +11 1026.8 1007.7 +4.5
09 15.09 З 2 10 км 8/3 600 м
[Cu hum Ci]
+17.5 +7.1 50 +18 +23 1024.2 1005.7
12 15.09 З 3 10 км 8/0
[Ci]
+19.5 +7.3 45 +20 +26 1020.9 1002.6
15 15.09 З 3 10 км 9/0
[Cs]
+19.1 +6.5 44 +20 +21 1018.0 999.7
18 15.09 штиль 0 10 км 4/0
[Ac trans]
+13.6 +5.3 57 +13 +13 1016.2 997.6 +19.7
21 15.09 ЮЗ 3 10 км 4/0
[Ac trans]
+14.9 +7.2 60 +14 +14 1014.4 995.9
00 16.09 штиль 0 10 км ясно +12.0 +7.7 75 +12 +12 1013.2 994.5
03 16.09 ЮЗ 1 10 км 8/8 600 м
[Sc]
+13.8 +10.2 79 +14 +14 1012.0 993.5
06 16.09 З 4 10 км 10/0
[Ac und]
+15.3 +13.0 86 +14 +15 1011.7 993.3 +11.6
09 16.09 З 5 10 км 8/1 1000 м
[Cu hum Ci]
+19.4 +11.0 58 +20 +24 1011.3 993.2
12 16.09 З 5 10 км 8/1 1000 м
[Cu hum Ci fib]
+21.2 +8.1 43 +22 +25 комфорт 1010.2 992.2
15 16.09 З 3 10 км 4/0
[Ac trans Ci fib]
+18.6 +7.2 47 +19 +20 1010.3 992.1
18 16.09 З 2 10 км ясно +14.4 +7.1 62 +14 +14 1010.9 992.4 +21.6
21 16.09 З 1 10 км 3/0
[Ac trans]
+11.2 +6.6 73 +11 +11 1011.1 992.4
00 17.09 ЮЗ 1 10 км 3/0
[Ci sp]
+10.0 +5.9 76 +10 +10 1011.0 992.2
03 17.09 З 1 10 км 4/0
[Ci]
+8.2 +4.6 78 +8 +8 1010.9 992.0
06 17.09 З 2 10 км 6/0
[Ci fib]
+9.3 +5.3 76 +8 +9 1011.2 992.4 +7.1
09 17.09 З 3 10 км 8/6 1000 м
[Cu hum Ci fib]
+14.7 +7.9 64 +14 +16 1010.2 991.8
12 17.09 З 3 10 км 8/8 1000 м
[Cu hum]
+17.5 +5.6 45 +18 +19 1008.2 990.0
15 17.09 З 2 10 км 9/9 600 м
[Cu med, cong]
+15.8 +4.9 48 +16 +16 1006.8 988.5
18 17.09 З 2 10 км 10/10 600 м
[Sc]
+13.5 +6.2 61 +13 +13 1005.6 987.2 +17.8
21 17.09 З 3 10 км 6/6 600 м
[Sc]
+11.8 +7.0 72 +10 +10 1003.8 985.3
00 18.09 З 3 10 км слаб. ливневой дождь 10/10 600 м
[Cb cap]
+8.4 +6.2 86 +6 +6 1003.4 984.7
03 18.09 З 5 10 км {ливн. осадки} 9/9 600 м
[Sc]
+7.8 +4.8 81 +4 +4 1004.2 985.4
06 18.09 З 5 10 км слаб. ливневой дождь 10/10 600 м
[Cb cap]
+8.0 +4.6 79 +4 +4 1005.6 986.8 +7.4 0.7
09 18.09 З 4 10 км {ливн. осадки} 9/9 600 м
[Cu Sc]
+9.7 +4.8 71 +7 +8 1007.0 988.3
12 18.09 З 5 10 км в посл. час ливневой дождь 6/6 600 м
[Cu med, cong]
+10.0 +6.4 78 +7 +8 1008.7 990.0
15 18.09 З 4 10 км {ливн. осадки} 8/8 600 м
[Cu med, cong]
+10.7 +7.4 80 +8 +8 1011.5 992.8
18 18.09 З 2 10 км в посл. час ливневой дождь 6/6 600 м
[Sc]
+8.7 +5.9 83 +7 +7 1014.2 995.3 +11.3 0.4
21 18.09 З 2 10 км 6/4 600 м
[Sc Ac cast]
+7.6 +5.3 85 +6 +6 1016.1 997.1
00 19.09 З 1 10 км 8/8 600 м
[Sc]
+6.1 +4.5 89 +5 +5 1016.8 997.7
03 19.09 З 1 10 км 6/6 600 м
[Sc]
+4.8 +3.4 91 +3 +3 1017.1 997.9
06 19.09 З 3 10 км 4/4 600 м
[Cu hum]
+6.5 +4.9 90 +3 +4 1018.1 999.0 +4.4
09 19.09 З 5 10 км 8/8 600 м
[Cu med, cong]
+11.5 +7.1 74 +9 +10 1018.6 999.8
12 19.09 З 4 10 км {ливн. осадки} 8/8 600 м
[Cb cap Ci ing]
+12.6 +7.2 70 +11 +12 1018.6 999.9
15 19.09 З 4 10 км {ливн. осадки} 8/8 600 м
[Cu Sc]
+10.4 +7.0 79 +8 +8 1019.3 1000.4
18 19.09 ЮЗ 2 10 км в посл. час ливневой дождь 4/4 600 м
[Sc]
+8.1 +6.4 89 +6 +6 1020.2 1001.1 +13.1 2
21 19.09 ЮЗ 1 10 км 3/1 600 м
[Sc Cc]
+5.7 +4.5 92 +4 +4 1020.7 1001.5
00 20.09 З 1 10 км 9/9 600 м
[Sc]
+5.9 +5.0 94 +5 +5 1020.7 1001.5
03 20.09 З 1 10 км 3/0
[Ac trans]
+4.3 +3.6 95 +3 +3 1020.7 1001.4
06 20.09 З 3 10 км 10/10 600 м
[Sc]
+5.3 +3.9 91 +2 +2 1021.2 1001.9 +4.0
09 20.09 СЗ 3 10 км 8/8 600 м
[Cu med, cong]
+8.4 +5.0 79 +6 +7 1021.3 1002.2
12 20.09 З 2 10 км в посл. час крупа [макс. диам. градин 3 мм] 6/6 600 м
[Cb cap]
+10.0 +6.1 77 +9 +11 1020.4 1001.5
15 20.09 СЗ 4 10 км {ливн. осадки} 8/8 600 м
[Cb cap]
+11.0 +2.1 54 +9 +9 1020.9 1002.0
18 20.09 З 2 10 км {ливн. осадки} ясно +6.6 +3.0 78 +4 +4 1022.9 1003.7 +11.7 2
21 20.09 З 1 10 км 3/0
[Ac trans]
+4.2 +2.5 89 +3 +3 1023.8 1004.4
00 21.09 штиль 0 10 км ясно +1.5 +0.7 94 0 0 1024.4 1004.8
03 21.09 штиль 0 10 км ясно +0.9 +0.1 94 -0 -0 1024.5 1004.8
06 21.09 З 1 10 км 9/9 600 м
[Sc]
+2.7 +1.1 89 +1 +1 1024.0 1004.5 0.0
09 21.09 З 1 10 км в посл. час ливневой дождь 10/10 600 м
[Cb cap]
+8.6 +6.7 88 +8 +8 1022.6 1003.5
12 21.09 З 2 10 км слаб. ливневой дождь 10/10 600 м
[Cb cap]
+9.6 +7.5 87 +8 +8 1021.3 1002.3
15 21.09 З 1 10 км {ливн. осадки} 10/10 600 м
[Sc]
+11.0 +9.6 91 +11 +11 1019.4 1000.6
18 21.09 З 2 10 км {ливн. осадки} 10/10 600 м
[Cb cap]
+12.2 +10.7 91 +11 +11 1019.2 1000.5 +12.3 1
21 21.09 З 3 10 км 10/10 600 м
[Sc]
+12.6 +10.7 88 +11 +11 1018.7 1000.0

 

Местоположение метеостанции Сарны (Ровенская область, Украина): широта 51.28 долгота 26.62 высота над уровнем моря 156 м.

В архиве по умолчанию представлена погода в Сарнах за последнюю неделю. Архивные данные за месяц целиком и за предыдущие месяцы, начиная с января 2011 года, Вы можете получить, выбрав интересующий диапазон дат из раскрывающегося списка и нажав кнопку "Ввод!".


*Определитесь, кто Вы:
робот инопланетянин человек

Внимание! Время в таблицах - всемирное. Для получения местного времени необходимо прибавить поправку, которая равна 2 ч.

Смотрите также архив погоды в соседних городах и на ближайших метеорологических станциях:

Погода в Олевске (Житомирская область, Украина) (74 км)
Погода в Маневичах (Волынская область, Украина) (76 км)
Погода в Ровно (Ровенская область, Украина) (85 км)
Погода в Пинске (Брестская область, Беларусь) (101 км)
Погода в Луцке (Волынская область, Украина) (102 км)
Погода в Любешове (Волынская область, Украина) (103 км)
Погода в Новограде-Волынском (Житомирская область, Украина) (104 км)
Погода в Дубно (Ровенская область, Украина) (113 км)
Погода в Полесской (Брестская область, Беларусь) (114 км)
Погода в Шепетовке (Хмельницкая область, Украина) (127 км)

Пояснения к столбцам:

Ветер - указаны скорость ветра в м/с - средняя за 10 мин, порывы в срок и между сроками (в фигурных скобках) и направление, откуда дует ветер: С - северный, СВ - северо-восточный, В - восточный, ЮВ - юго-восточный, Ю - южный, ЮЗ - юго-западный, З - западный, СЗ - северо-западный.
Видимость - горизонтальная дальность видимости в метрах или километрах. При видимости от 1 до 10 км при отсутствии осадков обычно наблюдается дымка, при ухудшении видимости до 1 км и менее - туман. В сухую погоду видимость может ухудшаться дымом, пылью или мглою.
Явления - указаны атмосферные явления, наблюдавшиеся в срок или в последний час перед сроком; фигурными скобками обозначены явления, наблюдавшиеся между сроками (за 1-3 часа до срока); квадратными скобками обозначены град или гололедные отложения с указанием их диаметра в мм.
Облачность - указаны через наклонную черту общая и нижняя облачность в баллах и высота нижней границы облаков в метрах; квадратными скобками обозначены формы облаков: Ci - перистые, Cs - перисто-слоистые, Cc - перисто-кучевые, Ac - высококучевые, As - высокослоистые, Sc - слоисто-кучевые, Ns - слоисто-дождевые, Cu - кучевые, Cb - кучево-дождевые. Подробнее классификацию облаков см. в Атласе облаков (PDF).
T - Температура воздуха - температура, измеренная на высоте 2 м над землей.
Td - Температура точки росы - температура, при понижении до которой содержащийся в воздухе водяной пар достигнет насыщения.
f - Относительная влажность воздуха - влажноcть воздуха, измеренная на высоте 2 м над землей.
Te - Эффективная температура - температура, которую ощущает одетый по сезону человек в тени. Характеристика душности погоды. При расчете учитывается влияние влажности воздуха и скорости ветра на теплоощущения человека.
Tes - Эффективная температура на солнце - температура, которую ощущает человек, с поправкой на солнечный нагрев. Характеристика знойности погоды. Зависит от высоты солнца над горизонтом, облачности и скорости ветра. Ночью, в пасмурную погоду, а также при ветре 12 м/с и более поправка равна нулю.
P - Атмосферное давление - приведенное к уровню моря атмосферное давление.
Po - Атмосферное давление - измеренное на уровне метеостанции атмосферное давление.
Tmin - Минимальная температура - минимум температуры воздуха на высоте 2 м над землей.
Tmax - Максимальная температура - максимум температуры воздуха на высоте 2 м над землей.
R - Количество осадков - Количество выпавших осадков за период времени, мм. При наведении курсора мыши на число - период времени, за который выпало указанное количество осадков.
R24 - Количество осадков - Количество выпавших осадков за 24 часа, мм.
S - Снежный покров - Высота снежного покрова, см. При наведении курсора мыши на число - состояние снежного покрова и степень покрытия местности в баллах.